Wind_Speed
12 14 14 12 15 13 12 16 13 7 8 8 7 5 4 6 9 8 7 6 6 3 4 5 6 7 9 9 9 12 15 17 21 28 29 29 31 32 33 33 34 35 37
25 17 13 16 17 21 25 23 21 20 18 18 16 17 17 16 16 16 15 14 11 10 10 9 9 7 7 9 10 12 14 16 19 25 27 29 31 32 35 35 34 34 36
31 26 28 30 28 28 28 27 26 26 26 26 25 26 26 25 22 20 18 16 15 14 14 14 13 13 14 16 16 16 18 19 21 25 29 31 31 31 33 36 36 40 41
33 34 36 34 32 32 32 32 32 32 31 30 29 28 28 26 24 21 19 18 17 17 17 16 16 17 17 18 19 20 20 21 22 24 26 28 30 32 34 39 44 43 47
40 39 40 38 35 35 35 34 33 32 32 30 28 27 26 26 24 20 18 17 17 17 18 18 19 20 19 20 21 22 22 23 24 26 27 31 34 38 39 42 46 50 51
43 42 38 36 35 35 34 34 32 33 31 29 29 27 27 29 24 23 21 20 19 19 20 20 20 19 19 20 22 23 24 24 25 27 30 31 33 37 40 42 45 48 49
40 38 36 35 35 35 33 31 32 32 29 31 30 27 27 27 23 22 20 20 21 22 22 23 25 26 27 27 28 28 27 26 27 27 30 31 35 34 37 41 42 44 48
39 38 35 34 35 33 31 31 31 30 30 30 28 27 26 26 23 21 21 22 23 25 26 27 28 29 30 31 31 30 29 27 27 29 30 31 31 32 33 35 39 44 49
39 36 34 32 32 31 32 31 31 28 28 28 26 25 25 25 23 23 23 24 26 26 27 28 30 31 29 27 33 33 32 31 32 31 31 31 32 32 31 36 40 44 51
35 34 32 30 31 31 30 30 30 28 28 27 25 26 24 24 23 24 26 28 29 30 30 31 32 32 32 30 32 33 33 34 37 37 35 33 33 33 32 31 33 38 41
32 30 30 30 30 29 28 27 27 26 25 25 25 26 26 25 25 25 26 29 32 34 36 39 38 37 36 34 33 31 29 32 34 35 35 35 36 37 35 33 31 32 37
29 29 29 29 29 27 26 25 24 24 25 26 25 25 25 25 28 30 31 32 34 37 37 38 39 39 37 35 33 29 28 32 35 38 39 39 40 39 37 35 34 34 33
29 30 29 26 25 25 25 25 25 25 27 28 28 28 28 27 28 31 35 36 38 40 38 38 39 38 36 35 33 32 33 35 36 37 37 37 37 38 38 38 36 36 38
26 27 26 26 26 26 26 26 25 27 28 28 29 30 30 31 31 34 37 39 41 42 41 39 37 35 33 33 33 32 32 31 31 33 34 35 38 39 39 37 39 40 43
25 26 26 25 25 25 27 28 29 29 27 27 28 29 31 33 30 28 30 32 35 34 39 41 42 42 42 41 39 37 34 32 32 31 33 37 40 41 39 37 37 41 42
24 25 25 26 26 25 24 23 23 23 23 24 27 30 32 32 27 29 31 32 40 40 41 42 43 43 42 41 39 37 34 32 31 31 34 37 39 40 39 38 39 41 42
22 23 23 23 23 23 22 22 21 21 24 27 30 32 35 36 35 38 39 42 41 40 41 41 41 40 38 35 33 33 33 30 29 31 36 36 37 37 37 40 43 46 50
18 20 20 22 24 24 25 26 27 29 30 31 32 35 38 39 41 42 41 39 41 42 42 41 39 36 33 31 30 31 30 28 29 33 36 36 35 36 40 43 46 49 52
14 17 20 22 23 24 26 26 27 29 31 33 35 37 40 40 40 39 39 40 42 42 42 40 37 33 31 30 30 30 29 27 31 36 37 35 35 39 42 45 49 50 51
12 14 17 20 22 23 25 28 29 31 33 35 38 41 42 41 42 40 38 39 39 39 37 34 31 29 28 29 30 29 27 27 33 37 35 35 38 41 44 48 50 52 52
7 12 15 18 21 24 27 30 31 33 34 36 39 41 39 39 39 38 40 39 38 35 32 30 29 28 29 29 29 27 26 28 33 36 35 37 40 43 46 48 51 53 53
7 10 14 18 22 25 28 30 31 33 35 38 41 39 38 38 38 38 38 36 33 30 27 27 29 29 29 28 27 24 26 29 32 35 36 38 41 44 47 50 53 56 56
6 9 14 18 22 25 27 30 32 34 36 39 40 39 38 37 36 36 34 32 28 25 26 28 30 30 28 26 23 22 27 32 30 34 37 40 43 45 47 51 54 58 57
8 11 14 18 22 25 28 31 34 34 37 39 39 37 36 35 35 34 31 28 23 21 24 29 31 31 28 24 20 21 25 28 30 31 38 42 44 46 48 50 52 57 56
10 13 16 20 23 27 30 32 34 35 38 40 38 36 35 34 34 32 28 24 18 18 24 28 32 32 27 21 20 21 24 28 27 31 37 39 42 43 46 47 51 55 54
12 14 17 21 24 27 31 33 34 35 38 39 36 34 33 32 32 29 26 22 16 17 23 28 31 31 25 18 19 22 24 28 30 32 36 40 41 42 44 47 50 50 53
Wind_Direction
98 90 58 48 66 74 85 77 72 73 60 58 53 46 48 33 22 27 35 30 5 12 346 340 348 329 315 313 311 309 308 304 301 300 304 307 306 307 303 298 297 294 291
91 80 82 79 66 65 69 70 74 78 74 66 62 67 65 58 55 56 58 58 61 59 51 34 35 19 3 355 346 334 325 323 320 317 316 318 318 316 315 314 311 306 304
97 96 93 88 85 82 79 76 76 75 73 73 75 72 71 70 67 66 65 65 62 58 48 39 31 17 11 3 356 348 339 331 327 324 321 324 325 324 317 316 313 312 310
93 93 89 84 80 78 79 80 78 76 76 77 75 76 76 71 66 63 59 58 53 49 44 34 23 14 9 4 1 356 350 342 337 333 330 328 324 319 318 318 316 317 316
92 90 88 90 90 88 83 81 80 78 78 78 78 78 76 72 66 60 56 52 48 44 40 36 34 30 23 15 7 360 351 345 338 333 331 328 328 327 327 324 320 320 317
93 92 93 92 89 84 82 79 76 75 74 74 71 70 70 70 65 60 52 51 49 46 41 35 29 22 16 10 3 356 348 343 337 335 334 330 326 325 322 321 320 321 323
92 92 89 85 83 80 78 77 75 74 73 72 71 68 69 69 63 58 54 50 45 41 32 25 18 11 3 358 354 348 343 338 331 332 327 327 324 325 321 321 320 318 313
90 88 87 85 84 83 81 77 75 73 70 70 71 73 71 69 61 54 47 43 38 32 23 15 7 360 354 350 345 342 338 336 330 329 327 325 323 323 320 317 316 313 313
88 88 86 85 85 82 78 76 75 74 73 71 68 63 59 58 50 43 35 32 28 21 13 6 1 356 355 354 343 342 337 333 329 328 326 323 322 323 325 320 324 322 319
86 85 84 84 80 78 77 73 69 65 64 60 57 53 48 46 40 32 26 21 16 10 3 358 355 351 348 346 339 339 334 329 329 327 325 324 324 325 328 328 326 323 324
88 86 83 79 75 74 74 72 67 62 58 54 49 45 41 38 33 24 16 12 6 2 357 353 351 348 342 339 336 335 332 324 327 326 329 332 333 336 337 334 331 330 326
86 85 84 82 78 73 68 67 63 58 54 51 47 43 37 30 22 15 9 5 359 355 352 349 347 343 341 338 335 336 334 332 333 336 338 341 340 339 337 334 333 332 327
86 81 78 75 71 68 62 59 57 53 48 43 36 29 23 15 10 5 2 358 355 351 348 346 340 339 337 334 335 336 335 336 336 336 337 338 337 335 335 335 334 334 329
82 79 73 65 60 54 51 50 47 45 39 33 27 20 13 8 3 359 355 352 349 349 344 341 340 339 339 339 341 345 345 342 341 340 339 338 337 339 338 340 338 339 334
75 69 63 58 54 52 49 47 41 37 28 21 16 11 7 4 4 353 350 349 341 347 336 340 342 343 344 344 345 347 348 348 346 345 343 342 342 341 341 343 342 340 332
68 63 58 53 49 47 43 38 36 30 22 17 12 6 4 0 356 351 349 346 345 343 343 343 345 346 346 346 346 347 351 350 348 346 345 345 343 342 342 345 346 339 333
61 58 52 48 45 41 37 32 29 27 19 12 8 2 1 358 355 352 348 346 344 341 343 345 345 345 346 346 347 348 349 350 349 349 348 346 344 344 345 346 345 341 339
54 51 48 46 41 35 29 23 16 11 8 5 2 358 356 355 354 349 345 343 343 345 346 347 348 349 349 349 349 349 350 352 352 350 349 348 349 348 347 347 344 341 339
53 48 43 37 31 25 20 14 9 7 3 360 357 356 353 355 352 349 349 347 346 345 346 347 348 350 353 352 351 351 353 354 353 350 350 351 352 350 348 347 343 341 339
44 37 34 27 21 15 11 8 5 2 360 358 355 354 352 352 351 352 352 350 349 348 347 350 354 357 356 352 350 352 355 356 353 352 353 354 353 351 349 346 345 343 341
35 29 23 16 11 9 6 3 0 357 356 356 354 354 354 352 352 352 353 353 352 353 354 359 1 359 355 351 351 354 355 354 354 354 354 354 353 351 350 346 346 345 343
13 12 9 6 3 2 359 357 354 353 353 353 352 352 352 352 353 353 354 355 357 1 4 3 360 356 352 351 351 352 353 351 351 352 351 352 351 349 347 348 347 347 345
335 350 356 355 354 352 350 351 350 351 352 351 350 351 352 353 354 354 355 357 1 6 7 3 0 357 355 354 352 351 349 351 350 349 350 350 347 346 345 345 346 345 345
313 332 342 345 344 343 346 347 347 349 349 348 349 352 352 353 354 353 355 358 4 9 8 3 358 355 353 353 354 353 355 355 348 351 352 345 343 342 343 343 343 344 345
306 321 330 333 336 339 343 344 345 347 347 348 349 350 352 351 352 352 354 357 3 6 5 360 356 356 353 352 354 355 354 351 346 354 348 342 343 343 343 343 344 345 347
305 314 319 326 332 337 340 340 343 345 345 347 348 349 349 349 350 351 353 356 359 4 3 2 358 355 355 356 357 358 360 359 3 359 351 349 348 348 348 346 348 349 351
Height
1416 1416 1424 1431 1424 1422 1424 1428 1429 1434 1437 1436 1441 1441 1443 1447 1446 1445 1446 1447 1449 1450 1454 1453 1451 1453 1454 1453 1453 1454 1453 1453 1449 1447 1448 1445 1441 1438 1437 1434 1430 1427 1423
1418 1422 1426 1430 1431 1431 1429 1432 1434 1434 1437 1441 1443 1443 1444 1445 1448 1449 1449 1452 1454 1454 1456 1452 1451 1454 1455 1453 1451 1452 1451 1450 1447 1443 1440 1438 1435 1431 1428 1424 1422 1418 1414
1416 1425 1431 1433 1436 1438 1436 1437 1442 1441 1441 1444 1449 1447 1448 1452 1454 1455 1456 1457 1458 1459 1457 1455 1456 1455 1453 1453 1452 1451 1449 1447 1444 1440 1434 1432 1429 1426 1421 1418 1413 1408 1405
1426 1434 1434 1436 1443 1446 1449 1451 1448 1448 1449 1452 1451 1453 1455 1458 1460 1461 1462 1461 1462 1460 1458 1458 1456 1454 1453 1453 1451 1449 1446 1442 1439 1435 1431 1428 1424 1420 1416 1409 1400 1398 1392
1436 1439 1441 1449 1458 1457 1456 1458 1458 1456 1457 1457 1457 1459 1460 1461 1464 1465 1465 1464 1462 1460 1459 1459 1457 1456 1455 1453 1452 1448 1444 1440 1436 1432 1427 1423 1418 1411 1406 1401 1393 1386 1380
1448 1451 1458 1463 1465 1463 1463 1463 1466 1461 1461 1462 1462 1464 1464 1464 1469 1468 1467 1466 1466 1464 1463 1461 1459 1457 1456 1455 1453 1448 1444 1438 1433 1427 1423 1418 1413 1408 1402 1395 1387 1379 1365
1458 1462 1465 1462 1462 1464 1466 1467 1467 1466 1469 1466 1466 1470 1471 1470 1474 1472 1472 1471 1468 1466 1465 1463 1461 1458 1456 1454 1451 1447 1442 1437 1431 1426 1420 1416 1408 1403 1395 1387 1382 1374 1365
1465 1467 1470 1470 1469 1472 1475 1475 1474 1474 1473 1472 1476 1478 1478 1476 1478 1479 1477 1476 1472 1468 1468 1465 1462 1459 1455 1450 1447 1442 1437 1432 1427 1424 1416 1410 1405 1397 1391 1383 1375 1364 1355
1473 1477 1478 1479 1480 1481 1481 1481 1479 1480 1480 1481 1483 1484 1481 1480 1482 1482 1481 1477 1473 1471 1470 1467 1462 1457 1452 1447 1441 1436 1431 1427 1422 1418 1412 1406 1399 1393 1385 1375 1367 1356 1341
1483 1485 1487 1489 1486 1486 1488 1487 1486 1488 1488 1488 1489 1486 1486 1486 1485 1483 1480 1478 1475 1472 1470 1466 1461 1455 1448 1443 1436 1430 1423 1418 1412 1407 1404 1399 1393 1386 1380 1372 1363 1351 1342
1492 1493 1493 1495 1494 1495 1495 1495 1495 1495 1494 1493 1492 1492 1491 1490 1488 1486 1483 1479 1475 1472 1467 1461 1456 1450 1445 1439 1432 1426 1422 1414 1408 1402 1395 1389 1382 1375 1369 1363 1356 1348 1337
1502 1501 1502 1502 1503 1504 1502 1501 1501 1500 1499 1498 1497 1497 1495 1493 1491 1488 1483 1480 1476 1470 1464 1458 1452 1445 1438 1433 1427 1420 1415 1408 1401 1393 1386 1378 1370 1364 1358 1353 1346 1340 1333
1509 1508 1509 1510 1509 1507 1506 1505 1503 1503 1502 1500 1500 1499 1498 1496 1492 1487 1482 1477 1471 1466 1462 1456 1449 1442 1435 1429 1423 1417 1410 1403 1395 1387 1380 1373 1367 1359 1351 1344 1338 1330 1321
1514 1514 1513 1512 1511 1510 1509 1508 1508 1507 1505 1504 1502 1499 1497 1494 1489 1484 1479 1472 1466 1460 1454 1450 1444 1437 1430 1424 1417 1411 1404 1397 1389 1381 1374 1368 1361 1353 1346 1339 1329 1321 1311
1518 1517 1517 1517 1516 1514 1512 1510 1509 1509 1509 1507 1505 1502 1497 1492 1487 1485 1479 1472 1465 1459 1449 1443 1435 1427 1420 1414 1409 1404 1398 1391 1384 1378 1371 1363 1355 1347 1340 1333 1325 1316 1307
1522 1522 1521 1520 1519 1518 1517 1516 1516 1514 1512 1510 1506 1502 1498 1493 1488 1483 1476 1470 1461 1453 1445 1437 1429 1422 1416 1410 1404 1399 1394 1388 1381 1375 1369 1361 1352 1344 1335 1328 1321 1314 1303
1527 1526 1526 1525 1524 1523 1522 1521 1519 1517 1514 1511 1507 1502 1497 1492 1485 1478 1471 1464 1457 1451 1443 1434 1427 1420 1414 1409 1403 1397 1390 1386 1380 1374 1366 1359 1350 1342 1334 1325 1317 1309 1297
1532 1532 1530 1529 1527 1526 1524 1521 1518 1514 1510 1508 1505 1500 1495 1489 1481 1474 1468 1461 1453 1444 1437 1430 1423 1417 1412 1407 1401 1395 1389 1384 1379 1372 1364 1356 1348 1340 1331 1323 1315 1305 1293
1535 1534 1532 1530 1528 1526 1524 1522 1519 1515 1510 1506 1502 1497 1490 1484 1478 1472 1464 1456 1448 1440 1433 1427 1421 1415 1410 1405 1399 1394 1389 1383 1377 1369 1361 1354 1346 1339 1331 1322 1313 1303 1291
1536 1536 1533 1532 1529 1527 1525 1521 1518 1513 1508 1504 1498 1491 1484 1479 1472 1466 1461 1454 1446 1439 1432 1426 1421 1415 1410 1404 1398 1392 1387 1382 1376 1368 1360 1353 1346 1339 1330 1320 1310 1298 1287
1536 1535 1533 1532 1530 1527 1524 1520 1515 1510 1506 1502 1496 1489 1483 1475 1469 1463 1457 1449 1443 1436 1430 1425 1420 1414 1409 1403 1398 1392 1387 1381 1375 1367 1360 1353 1346 1337 1329 1319 1308 1296 1284
1535 1534 1533 1531 1529 1526 1523 1518 1514 1509 1504 1498 1492 1487 1481 1475 1467 1461 1454 1448 1441 1436 1431 1426 1420 1415 1409 1403 1397 1392 1386 1381 1374 1367 1360 1353 1346 1337 1328 1317 1305 1293 1281
1534 1533 1531 1529 1527 1525 1522 1517 1512 1506 1501 1495 1489 1483 1477 1470 1463 1457 1451 1446 1441 1436 1432 1427 1420 1414 1408 1403 1397 1392 1387 1381 1374 1368 1360 1353 1345 1336 1327 1316 1304 1291 1278
1533 1532 1530 1528 1526 1523 1520 1515 1509 1503 1498 1492 1486 1479 1472 1466 1461 1455 1450 1445 1441 1438 1433 1427 1421 1414 1408 1403 1398 1394 1388 1383 1377 1369 1363 1354 1345 1337 1327 1316 1304 1291 1278
1530 1529 1528 1526 1524 1520 1516 1511 1506 1500 1495 1488 1482 1475 1469 1464 1459 1454 1449 1445 1441 1437 1433 1428 1421 1414 1408 1403 1399 1395 1390 1384 1377 1371 1364 1357 1348 1338 1327 1316 1304 1290 1277
1528 1527 1526 1524 1521 1516 1512 1507 1502 1496 1490 1484 1478 1472 1467 1462 1457 1453 1448 1444 1440 1437 1433 1428 1421 1414 1408 1404 1400 1395 1390 1385 1378 1372 1365 1357 1347 1337 1326 1315 1303 1291 1278